Hourly Weather Bolshie Rogi

Today, 20 June, Sunday

Time Temperature Precipitation Wind Pressure Humidity
00:00 +20°C° 0 mm 3 mps 754 mmHg 94%
01:00 +20°C° 0 mm 3 mps 754 mmHg 94%
02:00 +20°C° 0 mm 2 mps 754 mmHg 95%
03:00 +20°C° 0 mm 2 mps 754 mmHg 95%
04:00 +20°C° 0 mm 2 mps 753 mmHg 94%
05:00 +20°C° 0 mm 2 mps 753 mmHg 94%
06:00 +21°C° 0 mm 3 mps 753 mmHg 87%
07:00 +24°C° 0 mm 3 mps 753 mmHg 81%
08:00 +25°C° 0 mm 4 mps 753 mmHg 74%
09:00 +26°C° 0 mm 4 mps 753 mmHg 69%
10:00 +27°C° 0 mm 4 mps 753 mmHg 65%
11:00 +28°C° 0 mm 5 mps 753 mmHg 60%
12:00 +28°C° 0 mm 5 mps 753 mmHg 59%
13:00 +28°C° 0 mm 4 mps 753 mmHg 58%
14:00 +29°C° 0 mm 4 mps 753 mmHg 57%
15:00 +28°C° 0 mm 4 mps 752 mmHg 60%
16:00 +28°C° 0 mm 4 mps 752 mmHg 63%
17:00 +28°C° 0 mm 4 mps 752 mmHg 66%
18:00 +26°C° 0 mm 4 mps 752 mmHg 72%
19:00 +25°C° 0 mm 3 mps 752 mmHg 77%
20:00 +22°C° 0 mm 3 mps 752 mmHg 83%
21:00 +22°C° 0 mm 3 mps 751 mmHg 83%
22:00 +21°C° 0 mm 3 mps 751 mmHg 84%
23:00 +21°C° 0 mm 3 mps 751 mmHg 84%

Tomorrow, 21 June, Monday

Time Temperature Precipitation Wind Pressure Humidity
00:00 +20°C° 0 mm 3 mps 751 mmHg 87%
01:00 +19°C° 0 mm 3 mps 751 mmHg 90%
02:00 +18°C° 0 mm 3 mps 751 mmHg 94%
03:00 +18°C° 0 mm 3 mps 751 mmHg 93%
04:00 +19°C° 0 mm 3 mps 751 mmHg 92%
05:00 +19°C° 0 mm 3 mps 751 mmHg 91%
06:00 +20°C° 0 mm 3 mps 751 mmHg 84%
07:00 +21°C° 0 mm 4 mps 751 mmHg 78%
08:00 +23°C° 0 mm 4 mps 751 mmHg 71%
09:00 +25°C° 0 mm 4 mps 750 mmHg 66%
10:00 +27°C° 0 mm 5 mps 750 mmHg 61%
11:00 +28°C° 0 mm 5 mps 750 mmHg 56%
12:00 +29°C° 0 mm 5 mps 750 mmHg 56%
13:00 +29°C° 0 mm 5 mps 750 mmHg 55%
14:00 +30°C° 0 mm 6 mps 750 mmHg 55%
15:00 +30°C° 0 mm 5 mps 749 mmHg 58%
16:00 +30°C° 0 mm 5 mps 749 mmHg 61%
17:00 +29°C° 0 mm 5 mps 749 mmHg 64%
18:00 +28°C° 0 mm 5 mps 749 mmHg 70%
19:00 +26°C° 0 mm 4 mps 749 mmHg 76%
20:00 +23°C° 0 mm 4 mps 749 mmHg 82%
21:00 +24°C° 0 mm 3 mps 749 mmHg 86%
22:00 +22°C° 0 mm 3 mps 749 mmHg 89%
23:00 +21°C° 0 mm 3 mps 749 mmHg 92%

Day after tomorrow, 22 June, Tuesday

Time Temperature Precipitation Wind Pressure Humidity
00:00 +21°C° 0 mm 3 mps 749 mmHg 93%
01:00 +20°C° 0 mm 3 mps 749 mmHg 94%
02:00 +20°C° 0 mm 3 mps 749 mmHg 96%
03:00 +20°C° 0 mm 3 mps 749 mmHg 95%
04:00 +20°C° 0 mm 3 mps 750 mmHg 94%
05:00 +20°C° 0 mm 2 mps 750 mmHg 94%
06:00 +22°C° 0 mm 3 mps 750 mmHg 87%
07:00 +24°C° 0 mm 3 mps 750 mmHg 80%
08:00 +26°C° 0 mm 4 mps 750 mmHg 73%
09:00 +27°C° 0 mm 4 mps 750 mmHg 67%
10:00 +29°C° 0 mm 4 mps 750 mmHg 62%
11:00 +30°C° 0 mm 4 mps 750 mmHg 56%
12:00 +32°C° 0 mm 4 mps 750 mmHg 54%
13:00 +32°C° 0 mm 4 mps 750 mmHg 51%
14:00 +33°C° 0 mm 5 mps 750 mmHg 48%
15:00 +33°C° 0 mm 4 mps 750 mmHg 51%
16:00 +32°C° 0 mm 4 mps 750 mmHg 54%
17:00 +32°C° 0 mm 4 mps 749 mmHg 56%
18:00 +29°C° 0 mm 4 mps 750 mmHg 64%
19:00 +26°C° 0 mm 4 mps 750 mmHg 72%
20:00 +24°C° 0 mm 3 mps 750 mmHg 79%
21:00 +22°C° 0 mm 3 mps 750 mmHg 83%
22:00 +21°C° 0 mm 3 mps 750 mmHg 86%
23:00 +20°C° 0 mm 3 mps 750 mmHg 90%

23 June, Wednesday

Time Temperature Precipitation Wind Pressure Humidity
00:00 +20°C° 0 mm 3 mps 750 mmHg 91%
01:00 +20°C° 0 mm 2 mps 751 mmHg 92%
02:00 +20°C° 0 mm 2 mps 751 mmHg 93%
03:00 +20°C° 0 mm 2 mps 751 mmHg 93%
04:00 +20°C° 0 mm 2 mps 751 mmHg 93%
05:00 +21°C° 0 mm 2 mps 751 mmHg 92%
06:00 +22°C° 0 mm 3 mps 751 mmHg 86%
07:00 +25°C° 0 mm 3 mps 751 mmHg 79%
08:00 +27°C° 0 mm 3 mps 751 mmHg 73%
09:00 +29°C° 0 mm 3 mps 751 mmHg 67%
10:00 +30°C° 0 mm 3 mps 751 mmHg 61%
11:00 +32°C° 0 mm 4 mps 751 mmHg 56%
12:00 +33°C° 0 mm 4 mps 751 mmHg 54%
13:00 +34°C° 0 mm 4 mps 751 mmHg 51%
14:00 +34°C° 0 mm 4 mps 751 mmHg 49%
15:00 +34°C° 0 mm 4 mps 751 mmHg 53%
16:00 +33°C° 0 mm 4 mps 751 mmHg 57%
17:00 +33°C° 0 mm 4 mps 751 mmHg 61%
18:00 +30°C° 0 mm 4 mps 751 mmHg 68%
19:00 +28°C° 0 mm 4 mps 751 mmHg 75%
20:00 +27°C° 0 mm 3 mps 751 mmHg 82%
21:00 +25°C° 0 mm 3 mps 751 mmHg 85%
22:00 +24°C° 0 mm 3 mps 751 mmHg 88%
23:00 +22°C° 0 mm 3 mps 752 mmHg 91%

24 June, Thursday

Time Temperature Precipitation Wind Pressure Humidity
00:00 +23°C° 0 mm 2 mps 752 mmHg 92%
01:00 +21°C° 0 mm 2 mps 751 mmHg 93%
02:00 +21°C° 0 mm 2 mps 751 mmHg 94%
03:00 +21°C° 0 mm 2 mps 751 mmHg 94%
04:00 +21°C° 0 mm 2 mps 751 mmHg 93%
05:00 +21°C° 0 mm 2 mps 751 mmHg 92%
06:00 +24°C° 0 mm 2 mps 751 mmHg 85%
07:00 +26°C° 0 mm 3 mps 751 mmHg 78%
08:00 +28°C° 0 mm 3 mps 751 mmHg 71%
09:00 +29°C° 0 mm 3 mps 751 mmHg 65%
10:00 +30°C° 0 mm 3 mps 751 mmHg 59%
11:00 +32°C° 0 mm 4 mps 751 mmHg 54%
12:00 +33°C° 0 mm 3 mps 751 mmHg 51%
13:00 +34°C° 0 mm 3 mps 751 mmHg 48%
14:00 +34°C° 0 mm 3 mps 751 mmHg 45%
15:00 +34°C° 0 mm 3 mps 750 mmHg 48%
16:00 +34°C° 0 mm 3 mps 750 mmHg 51%
17:00 +34°C° 0 mm 2 mps 750 mmHg 53%
18:00 +31°C° 0 mm 2 mps 749 mmHg 60%
19:00 +29°C° 0 mm 2 mps 749 mmHg 67%
20:00 +27°C° 0 mm 3 mps 749 mmHg 75%
21:00 +26°C° 0 mm 3 mps 749 mmHg 77%
22:00 +25°C° 0 mm 3 mps 749 mmHg 79%
23:00 +24°C° 0 mm 3 mps 749 mmHg 82%

25 June, Friday

Time Temperature Precipitation Wind Pressure Humidity
00:00 +24°C° 0 mm 2 mps 749 mmHg 85%
01:00 +23°C° 0 mm 2 mps 749 mmHg 88%
02:00 +23°C° 0 mm 2 mps 749 mmHg 91%
03:00 +23°C° 0 mm 2 mps 748 mmHg 91%
04:00 +23°C° 0 mm 2 mps 748 mmHg 91%
05:00 +23°C° 0 mm 2 mps 748 mmHg 91%
06:00 +25°C° 0 mm 3 mps 748 mmHg 84%
07:00 +26°C° 0 mm 4 mps 748 mmHg 78%
08:00 +28°C° 0 mm 4 mps 748 mmHg 71%
09:00 +29°C° 0 mm 4 mps 748 mmHg 64%
10:00 +30°C° 0 mm 4 mps 748 mmHg 58%
11:00 +32°C° 0 mm 4 mps 748 mmHg 51%
12:00 +33°C° 0 mm 4 mps 748 mmHg 48%
13:00 +33°C° 0 mm 4 mps 748 mmHg 45%
14:00 +34°C° 0 mm 5 mps 748 mmHg 41%
15:00 +33°C° 0 mm 4 mps 747 mmHg 46%
16:00 +33°C° 0 mm 4 mps 747 mmHg 50%
17:00 +32°C° 0 mm 4 mps 747 mmHg 55%
18:00 +30°C° 0 mm 4 mps 747 mmHg 61%
19:00 +28°C° 0 mm 3 mps 746 mmHg 67%
20:00 +26°C° 0 mm 3 mps 746 mmHg 73%
21:00 +25°C° 0 mm 3 mps 746 mmHg 74%
22:00 +24°C° 0 mm 3 mps 746 mmHg 75%
23:00 +24°C° 0 mm 3 mps 746 mmHg 76%
Show more